Location: Bush Observatory
(40.2653°N, 94.3194°W)
Time: 05:00:59
(UTC-05:00)

Vanguard 1 - Visible Passes

Search period start: 29 August 2014 00:00
Search period end: 08 September 2014 00:00
Orbit: 650 x 3837 km, 34.2° (Epoch: 24 August)

Date Brightness Start Highest point End Pass type
(mag) Time Alt. Az. Time Alt. Az. Time Alt. Az.
29 Aug 12.7 00:44:25 10° WSW 01:12:47 22° E 01:15:16 10° E visible
29 Aug 11.2 03:25:33 61° SW 03:26:54 64° S 03:34:57 10° ESE visible
29 Aug 11.1 05:38:24 10° W 05:47:26 34° SSW 05:52:59 10° SSE visible
29 Aug 13.4 20:24:19 10° S 20:37:36 19° SE 20:48:19 11° ESE visible
29 Aug 12.6 22:41:22 10° SW 23:01:13 43° SSE 23:01:13 43° SSE visible
30 Aug 12.4 01:06:18 10° WSW 01:33:10 29° E 01:36:48 10° E visible
30 Aug 11.1 03:45:57 51° WSW 03:48:30 61° SSW 03:56:16 10° ESE visible
30 Aug 11.4 06:00:48 10° W 06:08:30 26° SW 06:13:35 10° SSE visible
30 Aug 13.3 20:42:35 10° S 20:59:11 25° SE 21:10:05 16° ESE visible
30 Aug 12.4 23:02:21 10° SW 23:22:58 50° SSE 23:22:58 50° SSE visible
31 Aug 12.2 01:28:23 10° WSW 01:53:42 36° ESE 01:58:19 10° E visible
31 Aug 11.2 04:06:30 43° WSW 04:10:00 55° SSW 04:17:29 10° SE visible
31 Aug 13.1 21:01:59 10° SSW 21:20:48 32° SE 21:31:42 20° E visible
31 Aug 12.3 23:23:42 10° SW 23:44:34 57° S 23:44:34 57° S visible
01 Sep 12.0 01:50:35 10° W 02:14:25 42° ESE 02:19:47 10° ESE visible
01 Sep 11.2 04:27:14 35° WSW 04:31:23 47° SSW 04:38:35 10° SE visible
01 Sep 13.0 21:22:04 10° SSW 21:42:29 40° SSE 21:53:06 24° E visible
01 Sep 12.3 23:45:22 10° WSW 00:05:57 62° S 00:05:57 62° S visible
02 Sep 11.8 02:12:53 10° W 02:35:20 47° SE 02:41:11 10° ESE visible
02 Sep 11.4 04:48:10 29° WSW 04:52:37 39° SSW 04:59:29 10° SSE visible
02 Sep 12.8 21:42:41 10° SW 22:04:14 47° SSE 22:14:15 29° E visible
03 Sep 12.3 00:07:16 10° WSW 00:27:04 64° SSW 00:27:04 64° SSW visible
03 Sep 11.7 02:35:12 10° W 02:56:27 48° SE 03:02:32 10° ESE visible
03 Sep 11.6 05:09:18 23° WSW 05:13:40 30° SW 05:20:06 10° SSE visible
03 Sep 13.4 19:44:21 10° S 20:01:27 27° SE 20:17:24 10° E visible
03 Sep 12.7 22:03:43 10° SW 22:26:03 54° SSE 22:35:08 35° ESE visible
04 Sep 12.3 00:29:22 10° WSW 00:47:55 62° SW 00:47:55 62° SW visible
04 Sep 11.7 02:57:33 10° W 03:17:45 46° SSE 03:23:47 10° SE visible
04 Sep 11.9 05:30:37 18° WSW 05:34:34 22° SW 05:40:19 10° S visible
04 Sep 13.3 20:03:55 10° SSW 20:22:55 35° SE 20:40:20 10° E visible
04 Sep 12.6 22:25:04 10° SW 22:47:57 60° SSE 22:55:45 41° ESE visible
05 Sep 12.4 00:51:35 10° W 01:08:31 57° WSW 01:08:31 57° WSW visible
05 Sep 11.7 03:19:56 10° W 03:39:11 41° SSE 03:44:53 10° SE visible
05 Sep 12.2 05:52:04 13° WSW 05:55:20 15° SW 05:59:43 10° SSW visible
05 Sep 13.1 20:24:06 10° SSW 20:44:28 42° SE 21:02:48 10° E visible
05 Sep 12.5 22:46:42 10° WSW 23:09:55 66° SSE 23:16:09 50° ESE visible
06 Sep 12.6 01:13:53 10° W 01:28:54 50° WSW 01:28:54 50° WSW visible
06 Sep 11.8 04:00:43 35° S 04:00:43 35° S 04:05:47 10° SE visible
06 Sep 13.0 20:44:46 10° SW 21:06:08 49° SSE 21:23:38 14° E visible
06 Sep 12.3 23:08:34 10° WSW 23:31:57 70° S 23:36:22 59° ESE visible
07 Sep 12.8 01:36:14 10° W 01:49:07 42° WSW 01:49:07 42° WSW visible
07 Sep 12.0 04:22:15 27° S 04:22:15 27° S 04:26:26 10° SSE visible
07 Sep 12.9 21:05:47 10° SW 21:27:55 56° SSE 21:43:44 19° E visible
07 Sep 12.3 23:30:37 10° WSW 23:54:00 72° S 23:56:27 68° SE visible
